Time,TemperatureF,DewpointF,PressureIn,WindDirection,WindDirectionDegrees,WindSpeedMPH,WindSpeedGustMPH,Humidity,HourlyPrecipIn,Conditions,Clouds,dailyrainin,SoftwareType,DateUTC
2013-11-18 00:23:00,45.0,42.0,29.25,WSW,242,15.0,-999.0,90,-99.99,,,-99.99,,2013-11-18 05:23:00,
2013-11-18 00:43:00,45.0,42.0,29.27,SW,214,14.0,-999.0,89,-99.99,,,-99.99,,2013-11-18 05:43:00,
2013-11-18 00:53:00,45.0,42.0,29.28,SW,234,14.0,-999.0,89,-99.99,,,-99.99,,2013-11-18 05:53:00,
2013-11-18 01:02:00,45.0,42.0,29.28,SW,234,14.0,-999.0,89,-99.99,,,-99.99,,2013-11-18 06:02:00,
2013-11-18 01:22:00,46.0,41.0,29.31,WSW,257,18.0,-999.0,82,-99.99,,,-99.99,,2013-11-18 06:22:00,
2013-11-18 01:32:00,46.0,41.0,29.31,WSW,257,18.0,-999.0,82,-99.99,,,-99.99,,2013-11-18 06:32:00,
2013-11-18 01:42:00,46.0,41.0,29.31,WSW,257,18.0,-999.0,82,-99.99,,,-99.99,,2013-11-18 06:42:00,
2013-11-18 01:52:00,45.0,41.0,29.34,West,260,14.0,-999.0,85,-99.99,,,-99.99,,2013-11-18 06:52:00,
2013-11-18 02:22:00,45.0,39.0,29.37,WSW,257,15.0,-999.0,79,-99.99,,,-99.99,,2013-11-18 07:22:00,
2013-11-18 02:32:00,45.0,39.0,29.37,WSW,257,15.0,-999.0,79,-99.99,,,-99.99,,2013-11-18 07:32:00,
2013-11-18 02:42:00,45.0,39.0,29.37,WSW,257,15.0,-999.0,79,-99.99,,,-99.99,,2013-11-18 07:42:00,
2013-11-18 02:52:00,45.0,37.0,29.39,West,278,16.0,-999.0,74,-99.99,,,-99.99,,2013-11-18 07:52:00,
2013-11-18 03:11:00,44.0,37.0,29.40,WSW,240,13.0,-999.0,76,-99.99,,,-99.99,,2013-11-18 08:11:00,
2013-11-18 03:22:00,44.0,36.0,29.41,West,276,17.0,-999.0,72,-99.99,,,-99.99,,2013-11-18 08:22:00,
2013-11-18 03:52:00,44.0,34.0,29.42,SW,215,18.0,-999.0,68,-99.99,,,-99.99,,2013-11-18 08:52:00,
2013-11-18 04:13:00,43.0,34.0,29.43,West,274,18.0,-999.0,69,-99.99,,,-99.99,,2013-11-18 09:13:00,
2013-11-18 04:22:00,43.0,34.0,29.45,WSW,240,15.0,-999.0,71,-99.99,,,-99.99,,2013-11-18 09:22:00,
2013-11-18 04:53:00,43.0,36.0,29.46,West,263,11.0,-999.0,75,-99.99,,,-99.99,,2013-11-18 09:53:00,
2013-11-18 05:13:00,43.0,36.0,29.46,WSW,238,8.0,-999.0,77,-99.99,,,-99.99,,2013-11-18 10:13:00,
2013-11-18 05:23:00,43.0,36.0,29.47,West,263,11.0,-999.0,76,-99.99,,,-99.99,,2013-11-18 10:23:00,
2013-11-18 05:53:00,43.0,35.0,29.48,West,267,16.0,-999.0,73,-99.99,,,-99.99,,2013-11-18 10:53:00,
2013-11-18 06:22:00,42.0,35.0,29.49,West,268,13.0,-999.0,75,-99.99,,,-99.99,,2013-11-18 11:22:00,
2013-11-18 06:52:00,42.0,34.0,29.50,WSW,244,15.0,-999.0,72,-99.99,,,-99.99,,2013-11-18 11:52:00,
2013-11-18 07:12:00,41.0,33.0,29.52,WSW,240,13.0,-999.0,72,-99.99,,,-99.99,,2013-11-18 12:12:00,
2013-11-18 07:22:00,41.0,33.0,29.52,WSW,240,14.0,-999.0,72,-99.99,,,-99.99,,2013-11-18 12:22:00,
2013-11-18 07:32:00,41.0,33.0,29.52,WSW,240,14.0,-999.0,72,-99.99,,,-99.99,,2013-11-18 12:32:00,
2013-11-18 07:42:00,41.0,33.0,29.52,WSW,240,14.0,-999.0,72,-99.99,,,-99.99,,2013-11-18 12:42:00,
2013-11-18 07:52:00,41.0,32.0,29.52,West,259,14.0,-999.0,71,-99.99,,,-99.99,,2013-11-18 12:52:00,
2013-11-18 08:11:00,40.0,32.0,29.53,West,263,14.0,-999.0,72,-99.99,,,-99.99,,2013-11-18 13:11:00,
2013-11-18 08:22:00,40.0,32.0,29.54,West,271,14.0,-999.0,74,-99.99,,,-99.99,,2013-11-18 13:22:00,
2013-11-18 08:42:00,40.0,32.0,29.55,West,281,13.0,-999.0,73,-99.99,,,-99.99,,2013-11-18 13:42:00,
2013-11-18 08:52:00,40.0,32.0,29.56,WSW,249,13.0,-999.0,72,-99.99,,,-99.99,,2013-11-18 13:52:00,
2013-11-18 09:11:00,39.0,31.0,29.57,West,262,11.0,-999.0,74,-99.99,,,-99.99,,2013-11-18 14:11:00,
2013-11-18 09:22:00,39.0,30.0,29.58,SW,225,15.0,-999.0,71,-99.99,,,-99.99,,2013-11-18 14:22:00,
2013-11-18 09:52:00,39.0,30.0,29.59,WNW,282,15.0,-999.0,70,-99.99,,,-99.99,,2013-11-18 14:52:00,
2013-11-18 10:22:00,38.0,30.0,29.61,WSW,246,14.0,-999.0,74,-99.99,,,-99.99,,2013-11-18 15:22:00,
2013-11-18 10:43:00,38.0,30.0,29.62,WSW,238,15.0,-999.0,72,-99.99,,,-99.99,,2013-11-18 15:43:00,
2013-11-18 10:54:00,38.0,30.0,29.63,WSW,258,12.0,-999.0,74,-99.99,,,-99.99,,2013-11-18 15:54:00,
2013-11-18 11:23:00,37.0,30.0,29.64,WSW,250,13.0,-999.0,75,-99.99,,,-99.99,,2013-11-18 16:23:00,
2013-11-18 11:43:00,37.0,30.0,29.65,WSW,251,13.0,-999.0,75,-99.99,,,-99.99,,2013-11-18 16:43:00,
2013-11-18 11:52:00,37.0,30.0,29.66,West,281,14.0,-999.0,76,-99.99,,,-99.99,,2013-11-18 16:52:00,
2013-11-18 12:22:00,37.0,31.0,29.66,WSW,243,13.0,-999.0,79,-99.99,,,-99.99,,2013-11-18 17:22:00,
2013-11-18 12:43:00,36.0,31.0,29.67,WNW,282,12.0,-999.0,81,-99.99,,,-99.99,,2013-11-18 17:43:00,
2013-11-18 12:52:00,36.0,31.0,29.68,West,278,12.0,-999.0,82,-99.99,,,-99.99,,2013-11-18 17:52:00,
2013-11-18 13:12:00,37.0,31.0,29.69,West,268,13.0,-999.0,79,-99.99,,,-99.99,,2013-11-18 18:12:00,
2013-11-18 13:23:00,37.0,29.0,29.69,WSW,243,13.0,-999.0,72,-99.99,,,-99.99,,2013-11-18 18:23:00,
2013-11-18 13:52:00,37.0,26.0,29.71,West,277,18.0,-999.0,63,-99.99,,,-99.99,,2013-11-18 18:52:00,
2013-11-18 14:22:00,38.0,26.0,29.72,NW,305,15.0,-999.0,61,-99.99,,,-99.99,,2013-11-18 19:22:00,
2013-11-18 14:42:00,37.0,26.0,29.73,West,280,15.0,-999.0,63,-99.99,,,-99.99,,2013-11-18 19:42:00,
2013-11-18 15:22:00,38.0,26.0,29.77,WNW,289,14.0,-999.0,62,-99.99,,,-99.99,,2013-11-18 20:22:00,
2013-11-18 15:42:00,37.0,27.0,29.78,West,267,13.0,-999.0,66,-99.99,,,-99.99,,2013-11-18 20:42:00,
2013-11-18 15:52:00,36.0,26.0,29.79,West,277,13.0,-999.0,67,-99.99,,,-99.99,,2013-11-18 20:52:00,
2013-11-18 16:22:00,36.0,26.0,29.81,West,280,11.0,-999.0,68,-99.99,,,-99.99,,2013-11-18 21:22:00,
2013-11-18 16:54:00,36.0,27.0,29.84,West,274,8.0,-999.0,69,-99.99,,,-99.99,,2013-11-18 21:54:00,
2013-11-18 17:13:00,36.0,26.0,29.85,WNW,297,12.0,-999.0,66,-99.99,,,-99.99,,2013-11-18 22:13:00,
2013-11-18 17:23:00,36.0,26.0,29.85,WNW,297,12.0,-999.0,66,-99.99,,,-99.99,,2013-11-18 22:23:00,
2013-11-18 17:53:00,35.0,26.0,29.88,West,268,9.0,-999.0,69,-99.99,,,-99.99,,2013-11-18 22:53:00,
2013-11-18 18:22:00,35.0,25.0,29.90,West,265,12.0,-999.0,67,-99.99,,,-99.99,,2013-11-18 23:22:00,
2013-11-18 18:42:00,35.0,25.0,29.91,West,281,14.0,-999.0,67,-99.99,,,-99.99,,2013-11-18 23:42:00,
2013-11-18 18:52:00,35.0,25.0,29.92,WNW,294,15.0,-999.0,67,-99.99,,,-99.99,,2013-11-18 23:52:00,
2013-11-18 19:22:00,34.0,25.0,29.94,West,271,10.0,-999.0,70,-99.99,,,-99.99,,2013-11-19 00:22:00,
2013-11-18 19:42:00,34.0,25.0,29.94,West,273,11.0,-999.0,70,-99.99,,,-99.99,,2013-11-19 00:42:00,
2013-11-18 19:52:00,34.0,26.0,29.95,WNW,284,11.0,-999.0,71,-99.99,,,-99.99,,2013-11-19 00:52:00,
2013-11-18 20:21:00,34.0,26.0,29.96,West,275,12.0,-999.0,71,-99.99,,,-99.99,,2013-11-19 01:21:00,
2013-11-18 20:42:00,34.0,25.0,29.98,WNW,291,10.0,-999.0,69,-99.99,,,-99.99,,2013-11-19 01:42:00,
2013-11-18 20:52:00,34.0,25.0,29.98,West,278,9.0,-999.0,69,-99.99,,,-99.99,,2013-11-19 01:52:00,
2013-11-18 21:22:00,35.0,26.0,30.00,WNW,284,12.0,-999.0,68,-99.99,,,-99.99,,2013-11-19 02:22:00,
2013-11-18 21:42:00,35.0,26.0,30.01,WNW,302,12.0,-999.0,68,-99.99,,,-99.99,,2013-11-19 02:42:00,
2013-11-18 21:52:00,35.0,25.0,30.02,WNW,296,15.0,-999.0,67,-99.99,,,-99.99,,2013-11-19 02:52:00,
2013-11-18 22:11:00,35.0,25.0,30.02,NW,307,17.0,-999.0,67,-99.99,,,-99.99,,2013-11-19 03:11:00,
2013-11-18 22:22:00,35.0,25.0,30.02,NW,317,16.0,-999.0,67,-99.99,,,-99.99,,2013-11-19 03:22:00,
2013-11-18 22:43:00,34.0,25.0,30.03,WNW,296,15.0,-999.0,69,-99.99,,,-99.99,,2013-11-19 03:43:00,
2013-11-18 22:54:00,35.0,26.0,30.03,West,269,16.0,-999.0,68,-99.99,,,-99.99,,2013-11-19 03:54:00,
2013-11-18 23:13:00,34.0,25.0,30.03,NW,311,14.0,-999.0,69,-99.99,,,-99.99,,2013-11-19 04:13:00,
2013-11-18 23:24:00,34.0,25.0,30.04,WNW,294,11.0,-999.0,69,-99.99,,,-99.99,,2013-11-19 04:24:00,
2013-11-18 23:42:00,34.0,25.0,30.05,WNW,290,10.0,-999.0,70,-99.99,,,-99.99,,2013-11-19 04:42:00,
2013-11-18 23:52:00,34.0,25.0,30.06,WNW,284,12.0,-999.0,70,-99.99,,,-99.99,,2013-11-19 04:52:00,